User: anonymous   Login
Location: Godiavel Galaoual
(15.2485°N, 12.6604°W)
Time: 02:04:16
(UTC+00:00)
Language:

BEESAT - Orbit

View from above orbital plane
View from above orbital plane
View from above satellite
View from above satellite

Ground track
Ground track

The orbit data is extracted from the following two-line orbital elements,

1 35933U 09051C   21216.54312227  .00000116  00000-0  37081-4 0  9997
2 35933  98.5963  59.8697 0005008 324.1546  35.9314 14.56615119630033
Epoch (UTC): 04 August 2021 13:02:05
Eccentricity: 0.0005008
inclination: 98.5963°
perigee height: 700 km
apogee height: 707 km
right ascension of ascending node: 59.8697°
argument of perigee: 324.1546°
revolutions per day: 14.56615119
mean anomaly at epoch: 35.9314°
orbit number at epoch: 63003

The dashed part of the orbit path shows where the satellite is in the earth's shadow,  

DLR